{"data":{"norad_id":52584,"epoch":"2026-09-19T21:19:20.732160Z","epoch_age_seconds":116140,"freshness":"FRESH","line1":"1 52584U 22051BA  26262.88843440 -.00000054  00000+0  93531-5 0  9996","line2":"2 52584  53.1608 320.3088 0001195  94.2053 265.9086 15.35392877240992","mean_motion":15.35392877,"eccentricity":0.0001195,"inclination_deg":53.1608,"raan_deg":320.3088,"arg_perigee_deg":94.2053,"mean_anomaly_deg":265.9086,"bstar":9.3531e-6,"rev_number":24099,"period_min":93.787070499742,"perigee_km":458.93666295439,"apogee_km":460.57091885341,"semimajor_km":6837.8907909039,"source":"CELESTRAK","updated_at":"2026-09-20T09:00:40.066282Z"}}